Regional Weather Roundup
Issued by NWS

Home | Current Version | Previous Version | Graphics & Text | Print | Product List | Glossary On
Versions: 1 2 3 4 5 6 7 8 9 10 11 12 13 14 15 16 17 18 19 20 21 22 23 24 25 26 27 28 29 30 31 32 33 34 35 36 37 38 39 40 41 42 43 44 45 46 47 48 49 50
000
ASUS43 KFSD 290402
RWRSD

WEATHER ROUNDUP FOR SOUTH DAKOTA
NATIONAL WEATHER SERVICE SIOUX FALLS SD
1100 PM CDT THU AUG 28 2014

NOTE: "FAIR" INDICATES FEW OR NO CLOUDS BELOW 12,000 FEET WITH NO
SIGNIFICANT WEATHER AND/OR OBSTRUCTIONS TO VISIBILITY.


SDZ001>005-009-010-012>017-290500-
NORTHWEST AND NORTH CENTRAL SOUTH DAKOTA

CITY           SKY/WX    TMP DP  RH WIND       PRES   REMARKS
BUFFALO          N/A     67  57  70 S9        29.83F
FAITH            N/A     64  62  93 S12       29.88F
MOBRIDGE       PTCLDY    65  65 100 E5        29.84S
$$

SDZ012>016-024>037-041>051-057-063-072>074-290500-
SOUTHWEST AND SOUTH CENTRAL SOUTH DAKOTA

CITY           SKY/WX    TMP DP  RH WIND       PRES   REMARKS
RAPID CTY ARPT PTCLDY    60  58  92 CALM      29.93F
PIERRE         CLOUDY    68  67  96 NE5       29.84S
CUSTER         PTCLDY    55  52  89 NW3       30.07F
ELLSWORTH AFB  PTCLDY    66  60  82 SW3       29.92F
PHILIP         MOCLDY    64  61  90 CALM      29.88S
PINE RIDGE     PTCLDY    57  54  89 SW3       29.96R
WINNER         FAIR      69  66  90 NW7       29.82F
$$

SDZ004>011-016>023-039-040-290500-
NORTHEAST SOUTH DAKOTA

CITY           SKY/WX    TMP DP  RH WIND       PRES   REMARKS
ABERDEEN       CLOUDY    65  65 100 CALM      29.85R
WATERTOWN      FOG       65  65 100 E8        29.85F VSB 3/4
SISSETON         N/A     65  65 100 SE6       29.85F
$$

SDZ017-020-022-023-036>040-048>070-290500-
SOUTHEAST SOUTH DAKOTA

CITY           SKY/WX    TMP DP  RH WIND       PRES   REMARKS
SIOUX FALLS    CLOUDY    72  70  93 SE9       29.82F FOG
HURON          CLOUDY    69  68  96 E6        29.82R
CHAMBERLAIN    CLOUDY    69  68  98 CALM      29.83F
MITCHELL       CLOUDY    71  70  96 SE3       29.82R FOG
YANKTON        CLOUDY    72  72 100 NE5       29.81S
$$

ABBREVIATIONS USED IN REMARKS
   TC - TEMPERATURE IN CELSIUS
  WCI - WIND CHILL INDEX
   HX - HEAT INDEX
  VSB - VISIBILITY



USA.gov is the U.S. government's official web portal to all federal, state and local government web resources and services.